GW2863 Weather Reports


time (UTC)temp
F
wind
direction
speed
knots
gust
knots
rain 1hr
in
rain 24hr
in
rain mn
in
humidity
%
barometer
mb
20260502130318 48 78 0.0 0.0 0.00 0.00 0.00 44 1020.3
20260502123803 47 124 0.0 0.0 0.00 0.00 0.00 43 1020.1
20260502123300 48 161 0.0 0.0 0.00 0.00 0.00 42 1020.2
20260502122757 48 137 0.0 0.0 0.00 0.00 0.00 41 1020.1
20260502122253 48 128 0.0 0.0 0.00 0.00 0.00 41 1020.1
20260502121751 48 267 0.0 0.0 0.00 0.00 0.00 41 1020.2
20260502121249 48 250 0.0 0.0 0.00 0.00 0.00 41 1020.2
20260502120745 49 232 0.0 0.0 0.00 0.00 0.00 41 1020.0
20260502120242 48 157 0.0 0.0 0.00 0.00 0.00 41 1020.0
20260502115740 49 94 0.0 0.0 0.00 0.00 0.00 41 1020.1
20260502115237 49 210 0.0 0.0 0.00 0.00 0.00 39 1020.0
20260502114732 48 213 0.0 0.0 0.00 0.00 0.00 40 1020.0
20260502114230 48 227 0.0 0.0 0.00 0.00 0.00 40 1020.1
20260502113727 48 226 0.0 0.0 0.00 0.00 0.00 42 1020.2
20260502113225 48 231 0.0 0.0 0.00 0.00 0.00 42 1019.8
20260502112723 48 243 0.0 0.0 0.00 0.00 0.00 41 1020.1
20260502112220 48 222 0.0 0.0 0.00 0.00 0.00 41 1020.0
20260502111717 48 134 0.0 0.0 0.00 0.00 0.00 41 1020.1
20260502111214 49 213 0.0 0.0 0.00 0.00 0.00 40 1020.3
20260502110712 49 219 0.0 0.0 0.00 0.00 0.00 40 1020.1
20260502110209 46 212 0.0 0.0 0.00 0.00 0.00 43 1020.1
20260502105707 46 265 0.0 0.0 0.00 0.00 0.00 46 1020.3
20260502105203 46 92 0.0 0.0 0.00 0.00 0.00 44 1020.0
20260502104701 45 29 0.0 0.0 0.00 0.00 0.00 47 1020.0
20260502104158 46 29 0.0 0.0 0.00 0.00 0.00 46 1020.1
20260502103656 46 294 0.0 0.0 0.00 0.00 0.00 44 1020.1
20260502103153 46 238 0.0 0.0 0.00 0.00 0.00 44 1020.0
20260502102650 47 27 0.0 0.0 0.00 0.00 0.00 45 1020.2
20260502102147 47 358 0.0 0.0 0.00 0.00 0.00 44 1020.1
20260502101645 48 83 0.0 0.0 0.00 0.00 0.00 43 1020.1
20260502101143 48 77 0.0 0.0 0.00 0.00 0.00 42 1019.7
20260502100641 49 81 0.0 0.0 0.00 0.00 0.00 41 1019.7
20260502100139 50 252 0.0 1.7 0.00 0.00 0.00 40 1019.7
20260502091113 48 234 0.0 0.0 0.00 0.00 0.00 43 1019.7
20260502090610 49 248 0.0 0.9 0.00 0.00 0.00 43 1019.7
20260502090107 48 227 0.0 0.9 0.00 0.00 0.00 43 1019.7
20260502071504 47 252 0.0 0.0 0.00 0.00 0.00 47 1020.1
20260502071003 47 225 0.0 0.0 0.00 0.00 0.00 48 1020.3
20260502070500 48 228 0.0 0.0 0.00 0.00 0.00 48 1020.3
20260502065958 48 226 0.0 0.0 0.00 0.00 0.00 47 1020.2
20260502065457 48 223 0.0 0.0 0.00 0.00 0.00 47 1020.1
20260502064954 48 227 0.0 0.0 0.00 0.00 0.00 47 1020.1
20260502064452 48 322 0.0 0.0 0.00 0.00 0.00 47 1020.0
20260502063949 48 167 0.0 0.0 0.00 0.00 0.00 47 1019.8
20260502063447 49 164 0.0 0.0 0.00 0.00 0.00 45 1020.1
20260502062944 49 229 0.0 0.0 0.00 0.00 0.00 45 1020.0
20260502062441 48 250 0.0 0.0 0.00 0.00 0.00 46 1019.8
20260502061940 49 227 0.0 0.0 0.00 0.00 0.00 45 1020.0
20260502061437 49 257 0.0 0.0 0.00 0.00 0.00 44 1019.7
20260502060933 49 221 0.0 0.9 0.00 0.00 0.00 44 1019.7
20260502060428 48 234 0.0 0.0 0.00 0.00 0.00 46 1019.8
20260502055926 48 233 0.0 0.0 0.00 0.00 0.00 47 1019.7
20260502055423 48 232 0.0 0.0 0.00 0.00 0.00 48 1019.8
20260502054918 48 224 0.0 0.0 0.00 0.00 0.00 46 1020.0
20260502054415 49 259 0.0 0.0 0.00 0.00 0.00 45 1019.5
20260502053912 49 223 0.0 0.0 0.00 0.00 0.00 45 1019.7
20260502053409 49 217 0.0 0.0 0.00 0.00 0.00 45 1019.6
20260502052907 48 218 0.0 0.0 0.00 0.00 0.00 47 1019.6
20260502052405 48 227 0.0 0.0 0.00 0.00 0.00 47 1019.5
20260502051902 48 245 0.0 0.0 0.00 0.00 0.00 47 1019.6
20260502051401 49 240 0.0 0.0 0.00 0.00 0.00 47 1019.8
20260502050857 49 240 0.0 0.0 0.00 0.00 0.00 46 1019.6
20260502050353 49 236 0.0 0.0 0.00 0.00 0.00 46 1019.6
20260502045850 49 230 0.0 0.0 0.00 0.00 0.00 45 1019.6
20260502045347 49 233 0.0 0.0 0.00 0.00 0.00 46 1019.7
20260502044844 50 233 0.0 0.0 0.00 0.00 0.00 46 1019.5
20260502044340 50 215 0.0 0.0 0.00 0.00 0.00 45 1019.7
20260502043837 50 224 0.0 0.0 0.00 0.00 0.00 45 1019.5
20260502043335 50 247 0.0 0.0 0.00 0.00 0.00 45 1019.6
20260502042834 50 249 0.0 0.0 0.00 0.00 0.00 45 1019.7
20260502042332 50 241 0.0 0.0 0.00 0.00 0.00 47 1019.5
20260502041829 50 236 0.0 0.0 0.00 0.00 0.00 46 1019.6
20260502041326 51 237 0.0 0.0 0.00 0.00 0.00 44 1019.5
20260502040824 51 237 0.0 0.0 0.00 0.00 0.00 42 1019.3
20260502040321 51 254 0.0 0.0 0.00 0.00 0.00 42 1019.5
20260502035816 51 258 0.0 0.0 0.00 0.00 0.00 41 1019.1
20260502035313 52 268 0.0 0.0 0.00 0.00 0.00 41 1019.4
20260502034811 52 244 0.0 0.0 0.00 0.00 0.00 41 1019.1
20260502034309 52 260 0.0 0.0 0.00 0.00 0.00 41 1019.3
20260502033807 52 207 0.0 0.0 0.00 0.00 0.00 40 1019.0
20260502033304 53 247 0.0 0.0 0.00 0.00 0.00 40 1019.3
20260502032801 53 271 0.0 0.0 0.00 0.00 0.00 39 1018.8
20260502032257 53 262 0.0 0.0 0.00 0.00 0.00 40 1018.8
20260502031755 53 249 0.0 0.0 0.00 0.00 0.00 39 1018.9
20260502031253 53 227 0.0 0.0 0.00 0.00 0.00 40 1018.8
20260502030751 53 271 0.0 0.0 0.00 0.00 0.00 40 1018.8
20260502030248 53 241 0.0 0.0 0.00 0.00 0.00 39 1018.4
20260502025746 54 264 0.0 0.0 0.00 0.00 0.00 38 1018.7
20260502025244 54 263 0.0 0.0 0.00 0.00 0.00 37 1018.4
20260502024741 55 270 0.0 0.0 0.00 0.00 0.00 36 1018.3
20260502024239 56 285 0.0 0.0 0.00 0.00 0.00 35 1018.3
20260502023737 56 272 0.0 0.0 0.00 0.00 0.00 35 1018.3
20260502023234 56 303 0.0 0.0 0.00 0.00 0.00 35 1018.0
20260502022732 56 273 0.0 0.0 0.00 0.00 0.00 35 1018.1
20260502022228 57 281 0.0 0.0 0.00 0.00 0.00 34 1018.2
20260502021725 59 265 0.0 1.7 0.00 0.00 0.00 33 1018.1
20260502021222 59 355 0.9 1.7 0.00 0.00 0.00 30 1018.0
20260502020719 59 346 0.9 1.7 0.00 0.00 0.00 30 1018.2
20260502020216 59 22 0.9 2.6 0.00 0.00 0.00 29 1018.0
20260502015714 59 308 1.7 1.7 0.00 0.00 0.00 30 1017.9
20260502015210 60 0 0.0 1.7 0.00 0.00 0.00 29 1018.0
20260502014708 60 12 2.6 4.3 0.00 0.00 0.00 29 1018.0
20260502014205 60 8 2.6 2.6 0.00 0.00 0.00 29 1018.1
20260502013701 61 351 2.6 4.3 0.00 0.00 0.00 28 1018.0
20260502013156 61 28 0.0 1.7 0.00 0.00 0.00 28 1018.1
20260502012654 62 329 0.9 1.7 0.00 0.00 0.00 28 1017.9
20260502012152 61 352 0.9 2.6 0.00 0.00 0.00 28 1017.8
20260502011648 62 13 1.7 2.6 0.00 0.00 0.00 28 1018.0
20260502011144 62 348 1.7 2.6 0.00 0.00 0.00 28 1017.9
20260502010642 62 0 2.6 2.6 0.00 0.00 0.00 28 1017.9
20260502010138 62 10 1.7 2.6 0.00 0.00 0.00 28 1017.9
20260502005635 62 1 0.0 2.6 0.00 0.00 0.00 28 1017.5
20260502005133 62 17 2.6 2.6 0.00 0.00 0.00 27 1017.9
20260502004629 62 6 0.9 2.6 0.00 0.00 0.00 28 1017.9
20260502004126 62 22 0.0 1.7 0.00 0.00 0.00 28 1018.0
20260502003624 62 69 0.9 2.6 0.00 0.00 0.00 27 1017.8
20260502003120 62 12 1.7 4.3 0.00 0.00 0.00 27 1017.9
20260502002616 63 15 0.9 2.6 0.00 0.00 0.00 26 1017.8
20260502002114 63 14 1.7 2.6 0.00 0.00 0.00 26 1017.9
20260502001612 62 0 0.9 2.6 0.00 0.00 0.00 25 1018.0
20260502001109 62 32 0.9 1.7 0.00 0.00 0.00 26 1017.9
20260502000607 63 40 0.9 2.6 0.00 0.00 0.00 25 1018.0
20260502000104 63 1 1.7 2.6 0.00 0.00 0.00 26 1017.9
20260501235559 62 33 0.0 2.6 0.00 0.00 0.00 26 1018.1
20260501235056 62 30 0.0 2.6 0.00 0.00 0.00 26 1018.0
20260501234551 62 55 0.0 1.7 0.00 0.00 0.00 27 1017.9
20260501234049 62 353 1.7 1.7 0.00 0.00 0.00 26 1017.9
20260501233547 62 84 0.0 2.6 0.00 0.00 0.00 26 1017.6
20260501233044 63 26 0.9 2.6 0.00 0.00 0.00 26 1017.9
20260501232540 62 49 0.0 2.6 0.00 0.00 0.00 26 1017.9
20260501232038 63 31 1.7 4.3 0.00 0.00 0.00 25 1017.9
20260501231535 63 64 0.0 1.7 0.00 0.00 0.00 25 1017.9
20260501231033 63 4 2.6 4.3 0.00 0.00 0.00 24 1017.8
20260501230532 63 19 2.6 2.6 0.00 0.00 0.00 24 1018.0
20260501230029 63 55 0.9 1.7 0.00 0.00 0.00 24 1018.0
20260501225527 63 23 1.7 2.6 0.00 0.00 0.00 24 1018.1
20260501225022 63 51 0.9 1.7 0.00 0.00 0.00 24 1017.8
20260501224520 63 78 0.0 1.7 0.00 0.00 0.00 24 1017.8
20260501224017 63 89 0.0 0.9 0.00 0.00 0.00 25 1018.1
20260501223514 62 55 0.0 1.7 0.00 0.00 0.00 26 1018.1
20260501223010 63 80 1.7 2.6 0.00 0.00 0.00 25 1018.3
20260501222506 63 50 0.9 1.7 0.00 0.00 0.00 24 1018.1
20260501222003 64 45 1.7 2.6 0.00 0.00 0.00 25 1018.1
20260501221459 63 337 0.9 2.6 0.00 0.00 0.00 24 1018.1
20260501220958 64 60 0.0 1.7 0.00 0.00 0.00 24 1018.3
20260501220455 64 65 0.0 1.7 0.00 0.00 0.00 24 1018.0
20260501215951 66 287 0.0 0.0 0.00 0.00 0.00 23 1018.4
20260501215448 64 300 0.0 0.0 0.00 0.00 0.00 25 1018.3
20260501214943 65 25 0.0 0.0 0.00 0.00 0.00 25 1018.6
20260501214439 64 45 0.0 0.0 0.00 0.00 0.00 24 1018.6
20260501213934 64 240 0.0 0.9 0.00 0.00 0.00 24 1018.6
20260501213432 64 273 0.0 0.0 0.00 0.00 0.00 25 1018.7
20260501212927 65 11 0.9 2.6 0.00 0.00 0.00 23 1018.4
20260501212424 64 335 1.7 2.6 0.00 0.00 0.00 25 1018.6
20260501211921 66 26 0.0 0.9 0.00 0.00 0.00 24 1018.8
20260501211419 66 217 0.0 0.0 0.00 0.00 0.00 22 1018.8
20260501210916 65 83 0.0 0.0 0.00 0.00 0.00 23 1018.9
20260501210412 63 265 0.0 0.0 0.00 0.00 0.00 25 1018.9
20260501205909 62 332 0.0 0.0 0.00 0.00 0.00 25 1018.9
20260501205406 63 68 0.0 0.0 0.00 0.00 0.00 25 1019.0
20260501204903 62 29 0.0 1.7 0.00 0.00 0.00 26 1019.0
20260501204359 63 62 0.0 1.7 0.00 0.00 0.00 26 1019.0
20260501203855 65 87 0.0 0.0 0.00 0.00 0.00 24 1018.9
20260501203352 63 29 0.0 0.0 0.00 0.00 0.00 24 1018.7
20260501202849 63 109 0.0 0.0 0.00 0.00 0.00 25 1019.0
20260501202346 63 126 0.0 0.0 0.00 0.00 0.00 25 1019.3
20260501201843 61 328 0.0 1.7 0.00 0.00 0.00 25 1019.3
20260501201340 62 13 2.6 2.6 0.00 0.00 0.00 25 1019.0
20260501200836 62 41 0.9 1.7 0.00 0.00 0.00 26 1018.9
20260501200333 61 320 0.9 1.7 0.00 0.00 0.00 26 1019.0
20260501195832 63 3 0.0 0.0 0.00 0.00 0.00 24 1019.1
20260501195327 63 146 0.0 0.0 0.00 0.00 0.00 24 1018.9
20260501194823 62 326 0.0 0.0 0.00 0.00 0.00 26 1019.1
20260501194319 60 291 0.0 0.9 0.00 0.00 0.00 27 1019.4
20260501193816 62 58 0.0 1.7 0.00 0.00 0.00 25 1019.1
20260501193314 60 25 0.9 0.9 0.00 0.00 0.00 26 1019.5
20260501192806 61 348 0.0 1.7 0.00 0.00 0.00 24 1019.3
20260501192306 60 109 0.0 0.0 0.00 0.00 0.00 25 1019.1
20260501191759 59 53 0.0 0.9 0.00 0.00 0.00 28 1019.6
20260501191256 60 44 1.7 1.7 0.00 0.00 0.00 26 1019.6
20260501190753 60 345 2.6 2.6 0.00 0.00 0.00 25 1019.5
20260501190249 60 80 0.0 1.7 0.00 0.00 0.00 27 1019.6
20260501185745 60 162 0.0 0.0 0.00 0.00 0.00 24 1019.7
20260501185241 60 17 0.9 0.9 0.00 0.00 0.00 27 1019.7
20260501184737 60 48 0.0 1.7 0.00 0.00 0.00 26 1019.8
20260501184232 60 27 0.9 2.6 0.00 0.00 0.00 27 1019.7
20260501183728 60 36 0.0 1.7 0.00 0.00 0.00 25 1020.2
20260501183226 58 89 0.0 2.6 0.00 0.00 0.00 27 1019.7
20260501182722 59 70 0.0 0.0 0.00 0.00 0.00 28 1019.8
20260501182219 59 39 2.6 2.6 0.00 0.00 0.00 27 1019.8
20260501181716 59 25 0.0 0.9 0.00 0.00 0.00 26 1020.3
20260501181214 59 27 0.0 1.7 0.00 0.00 0.00 27 1020.1
20260501180712 58 311 2.6 2.6 0.00 0.00 0.00 27 1020.0
20260501180207 58 345 2.6 2.6 0.00 0.00 0.00 29 1020.1
20260501175704 58 3 0.9 2.6 0.00 0.00 0.00 28 1020.3
20260501175201 57 55 0.9 1.7 0.00 0.00 0.00 28 1020.3
20260501174657 57 52 0.9 1.7 0.00 0.00 0.00 30 1020.1
20260501174155 58 64 0.9 2.6 0.00 0.00 0.00 30 1020.4
20260501173653 58 47 1.7 2.6 0.00 0.00 0.00 29 1020.3
20260501173149 57 342 1.7 2.6 0.00 0.00 0.00 29 1020.1
20260501172645 57 333 0.0 1.7 0.00 0.00 0.00 29 1020.3
20260501172140 57 22 0.0 1.7 0.00 0.00 0.00 31 1020.3
20260501171637 57 0 0.9 2.6 0.00 0.00 0.00 31 1020.4
20260501171134 57 325 1.7 1.7 0.00 0.00 0.00 31 1020.5
20260501170631 57 35 0.0 0.0 0.00 0.00 0.00 34 1020.3
20260501170127 55 18 0.0 0.0 0.00 0.00 0.00 35 1020.5
20260501165625 55 294 0.0 1.7 0.00 0.00 0.00 35 1020.2
20260501165122 57 11 0.0 1.7 0.00 0.00 0.00 32 1020.4
20260501164620 57 80 0.0 0.0 0.00 0.00 0.00 33 1020.5
20260501164117 58 273 0.0 0.0 0.00 0.00 0.00 33 1020.4
20260501163613 56 77 0.0 0.0 0.00 0.00 0.00 32 1020.4
20260501163110 56 62 0.0 0.0 0.00 0.00 0.00 34 1020.5
20260501162606 55 52 0.0 0.0 0.00 0.00 0.00 36 1020.4
20260501162103 57 97 0.0 0.0 0.00 0.00 0.00 34 1020.3
20260501161601 55 132 0.0 0.0 0.00 0.00 0.00 36 1020.3
20260501161057 56 132 0.0 0.0 0.00 0.00 0.00 35 1020.4
20260501160554 55 33 0.0 0.0 0.00 0.00 0.00 35 1020.1
20260501160051 55 118 0.0 0.0 0.00 0.00 0.00 35 1020.2
20260501155547 55 130 0.0 0.0 0.00 0.00 0.00 35 1020.3
20260501155045 55 77 0.0 0.0 0.00 0.00 0.00 36 1020.1
20260501154542 54 131 0.0 0.0 0.00 0.00 0.00 35 1020.2
20260501154039 55 107 0.0 0.9 0.00 0.00 0.00 36 1020.0
20260501153536 54 56 0.0 0.9 0.00 0.00 0.00 37 1020.0
20260501153033 54 102 0.0 0.0 0.00 0.00 0.00 37 1020.0
20260501152529 55 77 0.0 0.0 0.00 0.00 0.00 36 1020.1
20260501152027 55 86 0.0 0.0 0.00 0.00 0.00 36 1020.1
20260501151524 53 73 0.0 0.0 0.00 0.00 0.00 38 1020.0
20260501151020 53 100 0.0 0.0 0.00 0.00 0.00 37 1020.0
20260501150515 54 110 0.0 0.0 0.00 0.00 0.00 35 1020.1